Voltar ao catálogo

CZ-6A DEB

AtivoSSO
NORAD 54571·DEBRIS·🇨🇳 China

Lançado Nov 11, 2022 de Taiyuan Satellite Launch Center

Loading…

Próximas Passagens (próximas 24 horas)

TLE

AtualizadoSource: Space-Track

Época: Sep 13, 2026, 23:04 UTC

1 54571U 22151LX  26256.96139387  .00000499  00000-0  29850-3 0  9999
2 54571  98.8041 242.7649 0059956 104.4722 256.3112 14.10619304197187

Acompanhe CZ-6A DEB em tempo real com AllMySat

Download on the App Store